Location: Unspecified
(0.0000°N, 0.0000°E)
Time: 13:14:25
(UTC-04:00)

Hubble Space Telescope - Pass Details

Date: 01 October 2021
Orbit: 535 x 539 km, 28.5° (Epoch: 28 October)

Event Time Altitude Azimuth Distance (km) Brightness Sun altitude
Rises 14:24:46 0° 266° (W) 2,664 6.9 -8.8°
Reaches altitude 10° 14:27:55 10° 241° (WSW) 1,777 4.6 -9.6°
Maximum altitude 14:30:09 14° 208° (SSW) 1,530 3.5 -10.1°
Drops below altitude 10° 14:32:23 10° 174° (S) 1,780 3.4 -10.7°
Sets 14:35:34 0° 149° (SSE) 2,673 4.1 -11.5°
